Location: Alexander
(41.3564°N, 81.5960°W)
Time: 09:14:14
(UTC+00:00)

Cosmos 1328 - Pass Details

Date: 24 January 2021
Orbit: 528 x 555 km, 82.5° (Epoch: 02 March)

Event Time Altitude Azimuth Distance (km) Brightness Sun altitude
Rises 23:44:54 0° 178° (S) 2,712 7.5 -13.5°
Reaches altitude 10° 23:47:04 10° 174° (S) 1,820 6.6 -13.9°
Maximum altitude 23:51:01 60° 95° (E) 633 3.8 -14.7°
Drops below altitude 10° 23:54:58 10° 15° (NNE) 1,821 6.2 -15.4°
Enters shadow 23:56:00 - 13° (NNE) 2,248 6.7 -15.6°
